Greenville, ME

6:52 AM EDT on October 16, 2019 (GMT -0400)
Greenville

Weather History for KGNR - August, 2019

Change the Weather History Date:

Monday, August 5, 2019

  Actual Average (WUND) Record (WUND)
Temperature  
Mean Temperature 64 °F -  
Max Temperature 75 °F - - (-1)
Min Temperature 53 °F - - (-1)
Degree Days  
Heating Degree Days 1    
Growing Degree Days 14 (Base 50)    
Moisture  
Dew Point 47 °F    
Average Humidity 55    
Maximum Humidity 75    
Minimum Humidity 37    
Precipitation  
Precipitation 0.00 in - - ()
Sea Level Pressure  
Sea Level Pressure 29.94 in    
Wind  
Wind Speed 7 mph (NNW)    
Max Wind Speed 15 mph    
Max Gust Speed 20 mph    
Averages and records for this station are not official NWS values.
T = Trace of Precipitation, MM = Missing Value Source: NWS Daily Summary

Daily Weather History Graph

Daily Weather History Graph

Search for Another Location

Airport or City:

Astronomy

Aug. 05, 2019 Rise Set
Actual Time 5:26 AM EDT 8:01 PM EDT
Civil Twilight 4:53 AM EDT 8:34 PM EDT
Nautical Twilight 4:10 AM EDT 9:16 PM EDT
Astronomical Twilight 3:22 AM EDT 10:04 PM EDT
Moon 10:53 AM EDT (8/5) 10:55 PM EDT (8/5)
Length of Visible Light 15h 41m
Length of Day
14h 34m
Waxing Crescent, 28% of the Moon is Illuminated
Aug 5
Waxing Crescent
Aug 7
First Quarter
Aug 15
Full
Aug 23
Last Quarter
Aug 30
New

Hourly Weather History & Observations

Time (EDT) Temp. Dew Point Humidity Pressure Visibility Wind Dir Wind Speed Gust Speed Precip Events Conditions
12:56 AM 54.0 °F 46.0 °F 75% 29.93 in - NW 6.9 mph - N/A   Unknown
1:56 AM 54.0 °F 45.0 °F 72% 29.93 in - NNW 9.2 mph - N/A   Unknown
3:56 AM 53.1 °F 45.0 °F 74% 29.92 in - NNE 3.5 mph - N/A   Unknown
4:56 AM 53.1 °F 45.0 °F 74% 29.93 in - NW 10.4 mph - N/A   Unknown
5:56 AM 53.1 °F 45.0 °F 74% 29.94 in - NW 5.8 mph - N/A   Unknown
6:56 AM 55.9 °F 46.0 °F 69% 29.94 in - NNW 9.2 mph - N/A   Unknown
7:56 AM 59.0 °F 46.0 °F 62% 29.95 in - NW 6.9 mph - N/A   Unknown
8:56 AM 60.1 °F 46.9 °F 62% 29.96 in - NW 9.2 mph - N/A   Unknown
9:56 AM 64.0 °F 48.0 °F 56% 29.97 in - North 9.2 mph - N/A   Unknown
10:56 AM 66.9 °F 48.0 °F 51% 29.97 in - NNW 9.2 mph 16.1 mph N/A   Unknown
11:56 AM 69.1 °F 46.9 °F 45% 29.95 in - North 8.1 mph - N/A   Unknown
12:56 PM 70.0 °F 46.0 °F 42% 29.94 in - NNW 15.0 mph 19.6 mph N/A   Unknown
1:56 PM 72.0 °F 45.0 °F 38% 29.94 in - North 10.4 mph - N/A   Unknown
2:56 PM 73.0 °F 46.0 °F 38% 29.92 in - NNW 9.2 mph - N/A   Unknown
3:56 PM 73.9 °F 46.9 °F 38% 29.91 in - NNW 9.2 mph - N/A   Unknown
4:56 PM 75.0 °F 46.9 °F 37% 29.92 in - North 8.1 mph - N/A   Unknown
5:56 PM 73.9 °F 46.0 °F 37% 29.92 in - NNW 8.1 mph - N/A   Unknown
6:56 PM 72.0 °F 46.0 °F 40% 29.91 in - NW 6.9 mph - N/A   Unknown
7:56 PM 68.0 °F 46.9 °F 47% 29.92 in - NW 3.5 mph - N/A   Unknown
8:56 PM 64.9 °F 48.0 °F 54% 29.94 in - Calm Calm - N/A   Unknown
9:56 PM 64.0 °F 48.9 °F 58% 29.95 in - Calm Calm - N/A   Unknown
10:56 PM 62.1 °F 51.1 °F 67% 29.93 in - Calm Calm - N/A   Unknown
11:56 PM 62.1 °F 50.0 °F 65% 29.94 in - Calm Calm - N/A   Unknown